Location: Berlise
(49.6641°N, 4.1077°E)
Time: 02:29:21
(UTC+00:00)

COSMO-SKYMED 1 - Pass Details

Date: 27 January 2021
Orbit: 621 x 623 km, 97.9° (Epoch: 28 February)

Event Time Altitude Azimuth Distance (km) Brightness Sun altitude
Rises 05:05:34 0° 175° (S) 2,893 6.1 -22.1°
Reaches altitude 10° 05:07:47 10° 179° (S) 1,991 5.2 -21.7°
Maximum altitude 05:12:03 58° 259° (W) 734 2.5 -21.0°
Enters shadow 05:12:17 57° 274° (W) 741 2.5 -21.0°
